timestamp,wind_dir_avg,wind_spd_avg,wind_spd_max_dir,wind_spd_gust,battery_voltage,lat,long
2024-04-25 00:04:00+00:00,315.0,0.01,35.0,0.0,12.25,47.59359,-54.27349
2024-04-25 00:14:00+00:00,315.0,0.01,35.0,0.0,12.17,47.59359,-54.27349
2024-04-25 00:24:00+00:00,315.0,0.01,35.0,0.0,12.17,47.59359,-54.27349
2024-04-25 00:34:00+00:00,315.0,0.01,35.0,0.0,12.17,47.59359,-54.27349
2024-04-25 00:44:00+00:00,315.0,0.01,35.0,0.0,12.17,47.59359,-54.27349
2024-04-25 00:54:00+00:00,315.0,0.01,35.0,0.0,12.17,47.59359,-54.27349
2024-04-25 01:04:00+00:00,315.0,0.01,35.0,0.0,12.17,47.59359,-54.27349
2024-04-25 01:14:00+00:00,315.0,0.01,35.0,0.0,12.17,47.59359,-54.27349
2024-04-25 01:24:00+00:00,315.0,0.01,35.0,0.0,12.17,47.59359,-54.27349
2024-04-25 01:34:00+00:00,315.0,0.01,35.0,0.0,12.17,47.59359,-54.27349
2024-04-25 01:44:00+00:00,315.0,0.01,35.0,0.0,12.17,47.59359,-54.27349
2024-04-25 01:54:00+00:00,315.0,0.01,35.0,0.0,12.17,47.59359,-54.27349
2024-04-25 02:04:00+00:00,315.0,0.01,35.0,0.0,12.17,47.59359,-54.27349
2024-04-25 02:14:00+00:00,315.0,0.01,35.0,0.0,12.17,47.59359,-54.27349
2024-04-25 02:24:00+00:00,315.0,0.01,35.0,0.0,12.17,47.59359,-54.27349
2024-04-25 02:34:00+00:00,315.0,0.01,35.0,0.0,12.17,47.59359,-54.27349
2024-04-25 02:44:00+00:00,315.0,0.01,35.0,0.0,12.17,47.59359,-54.27349
2024-04-25 02:54:00+00:00,315.0,0.01,35.0,0.0,12.17,47.59359,-54.27349
2024-04-25 03:04:00+00:00,315.0,0.01,35.0,0.0,12.17,47.59359,-54.27349
2024-04-25 03:14:00+00:00,315.0,0.01,35.0,0.0,12.09,47.59359,-54.27349
2024-04-25 03:24:00+00:00,315.0,0.01,35.0,0.0,12.09,47.59359,-54.27349
2024-04-25 03:34:00+00:00,315.0,0.01,35.0,0.0,12.09,47.59359,-54.27349
2024-04-25 03:44:00+00:00,315.0,0.01,35.0,0.0,12.09,47.59359,-54.27349
2024-04-25 03:54:00+00:00,315.0,0.01,35.0,0.0,12.09,47.59359,-54.27349
2024-04-25 04:04:00+00:00,315.0,0.01,35.0,0.0,12.09,47.59359,-54.27349
2024-04-25 04:14:00+00:00,315.0,0.01,35.0,0.0,12.09,47.59359,-54.27349
2024-04-25 04:24:00+00:00,315.0,0.01,35.0,0.0,12.09,47.59359,-54.27349
2024-04-25 04:34:00+00:00,315.0,0.01,35.0,0.0,12.09,47.59359,-54.27349
2024-04-25 04:44:00+00:00,315.0,0.01,35.0,0.0,12.09,47.59359,-54.27349
2024-04-25 04:54:00+00:00,315.0,0.01,35.0,0.0,12.09,47.59359,-54.27349
2024-04-25 05:04:00+00:00,315.0,0.01,35.0,0.0,12.09,47.59359,-54.27349
2024-04-25 05:14:01+00:00,315.0,0.01,35.0,0.0,12.09,47.59359,-54.27349
2024-04-25 05:24:01+00:00,315.0,0.01,35.0,0.0,12.09,47.59359,-54.27349
2024-04-25 05:34:01+00:00,315.0,0.01,35.0,0.0,12.09,47.59359,-54.27349
2024-04-25 05:44:01+00:00,315.0,0.01,35.0,0.0,12.09,47.59359,-54.27349
2024-04-25 05:54:01+00:00,315.0,0.01,35.0,0.0,12.09,47.59359,-54.27349
2024-04-25 06:04:01+00:00,315.0,0.01,35.0,0.0,12.09,47.59359,-54.27349
2024-04-25 06:14:00+00:00,315.0,0.01,214.0,0.0,12.09,47.59359,-54.27349
2024-04-25 06:24:00+00:00,315.0,0.01,214.0,0.0,12.09,47.59359,-54.27349
2024-04-25 06:34:00+00:00,315.0,0.01,214.0,0.0,12.09,47.59359,-54.27349
2024-04-25 06:44:00+00:00,315.0,0.01,214.0,0.0,12.09,47.59359,-54.27349
2024-04-25 06:54:00+00:00,315.0,0.01,214.0,0.0,12.09,47.59359,-54.27349
2024-04-25 07:04:00+00:00,315.0,0.01,214.0,0.0,12.09,47.59359,-54.27349
2024-04-25 07:14:00+00:00,315.0,0.01,214.0,0.0,12.01,47.59359,-54.27349
2024-04-25 07:24:00+00:00,315.0,0.01,214.0,0.0,12.01,47.59359,-54.27349
2024-04-25 07:34:00+00:00,315.0,0.01,214.0,0.0,12.01,47.59359,-54.27349
2024-04-25 07:44:00+00:00,315.0,0.01,214.0,0.0,12.01,47.59359,-54.27349
2024-04-25 07:54:00+00:00,315.0,0.01,214.0,0.0,12.01,47.59359,-54.27349
2024-04-25 08:04:00+00:00,315.0,0.01,214.0,0.0,12.01,47.59359,-54.27349
2024-04-25 08:14:00+00:00,315.0,0.01,214.0,0.0,12.01,47.59359,-54.27349
2024-04-25 08:24:00+00:00,315.0,0.01,214.0,0.0,12.01,47.59359,-54.27349
2024-04-25 08:34:00+00:00,315.0,0.01,214.0,0.0,12.01,47.59359,-54.27349
2024-04-25 08:44:00+00:00,315.0,0.01,214.0,0.0,12.01,47.59359,-54.27349
2024-04-25 08:54:00+00:00,315.0,0.01,214.0,0.0,12.01,47.59359,-54.27349
2024-04-25 09:04:00+00:00,315.0,0.01,214.0,0.0,12.01,47.59359,-54.27349
2024-04-25 09:14:00+00:00,315.0,0.01,214.0,0.0,12.09,47.59359,-54.27349
2024-04-25 09:24:00+00:00,315.0,0.01,214.0,0.0,12.09,47.59359,-54.27349
2024-04-25 09:34:00+00:00,315.0,0.01,214.0,0.0,12.09,47.59359,-54.27349
2024-04-25 09:44:00+00:00,315.0,0.01,214.0,0.0,12.09,47.59359,-54.27349
2024-04-25 09:54:00+00:00,315.0,0.01,214.0,0.0,12.09,47.59359,-54.27349
2024-04-25 10:04:00+00:00,315.0,0.01,214.0,0.0,12.09,47.59359,-54.27349
2024-04-25 10:14:00+00:00,315.0,0.01,214.0,0.0,13.44,47.59359,-54.27349
2024-04-25 10:24:00+00:00,315.0,0.01,214.0,0.0,13.44,47.59359,-54.27349
2024-04-25 10:34:00+00:00,315.0,0.01,214.0,0.0,13.44,47.59359,-54.27349
2024-04-25 10:44:00+00:00,315.0,0.01,214.0,0.0,13.44,47.59359,-54.27349
2024-04-25 10:54:00+00:00,315.0,0.01,214.0,0.0,13.44,47.59359,-54.27349
2024-04-25 11:04:00+00:00,315.0,0.01,214.0,0.0,13.44,47.59359,-54.27349
2024-04-25 11:14:00+00:00,315.0,0.01,214.0,0.0,13.68,47.59359,-54.27349
2024-04-25 11:24:00+00:00,315.0,0.01,214.0,0.0,13.68,47.59359,-54.27349
2024-04-25 11:34:00+00:00,315.0,0.01,214.0,0.0,13.68,47.59359,-54.27349
2024-04-25 11:44:00+00:00,315.0,0.01,214.0,0.0,13.68,47.59359,-54.27349
2024-04-25 11:54:00+00:00,315.0,0.01,214.0,0.0,13.68,47.59359,-54.27349
2024-04-25 12:04:00+00:00,315.0,0.01,214.0,0.0,13.68,47.59359,-54.27349
2024-04-25 12:14:00+00:00,315.0,0.01,214.0,0.0,13.6,47.59359,-54.27349
2024-04-25 12:24:00+00:00,315.0,0.01,214.0,0.0,13.6,47.59359,-54.27349
2024-04-25 12:34:00+00:00,315.0,0.01,214.0,0.0,13.6,47.59359,-54.27349
2024-04-25 12:44:00+00:00,315.0,0.01,214.0,0.0,13.6,47.59359,-54.27349
2024-04-25 12:54:00+00:00,315.0,0.01,214.0,0.0,13.6,47.59359,-54.27349
2024-04-25 13:04:00+00:00,315.0,0.01,214.0,0.0,13.6,47.59359,-54.27349
2024-04-25 13:14:00+00:00,315.0,0.01,214.0,0.0,13.53,47.59359,-54.27349
2024-04-25 13:24:00+00:00,315.0,0.01,214.0,0.0,13.53,47.59359,-54.27349
2024-04-25 13:34:00+00:00,315.0,0.01,214.0,0.0,13.53,47.59359,-54.27349
2024-04-25 13:44:00+00:00,315.0,0.01,214.0,0.0,13.53,47.59359,-54.27349
2024-04-25 13:54:00+00:00,315.0,0.01,214.0,0.0,13.53,47.59359,-54.27349
2024-04-25 14:04:00+00:00,315.0,0.01,214.0,0.0,13.53,47.59359,-54.27349
2024-04-25 14:14:01+00:00,315.0,0.01,214.0,0.0,13.6,47.59359,-54.27349
2024-04-25 14:24:01+00:00,315.0,0.01,214.0,0.0,13.6,47.59359,-54.27349
2024-04-25 14:34:01+00:00,315.0,0.01,214.0,0.0,13.6,47.59359,-54.27349
2024-04-25 14:44:01+00:00,315.0,0.01,214.0,0.0,13.6,47.59359,-54.27349
2024-04-25 14:54:01+00:00,315.0,0.01,214.0,0.0,13.6,47.59359,-54.27349
2024-04-25 15:04:01+00:00,315.0,0.01,214.0,0.0,13.6,47.59359,-54.27349
2024-04-25 15:14:00+00:00,315.0,0.01,214.0,0.0,13.53,47.59359,-54.27349
2024-04-25 15:24:00+00:00,315.0,0.01,214.0,0.0,13.53,47.59359,-54.27349
2024-04-25 15:34:00+00:00,315.0,0.01,214.0,0.0,13.53,47.59359,-54.27349
2024-04-25 15:44:00+00:00,315.0,0.01,214.0,0.0,13.53,47.59359,-54.27349
2024-04-25 15:54:00+00:00,315.0,0.01,214.0,0.0,13.53,47.59359,-54.27349
2024-04-25 16:04:00+00:00,315.0,0.01,214.0,0.0,13.53,47.59359,-54.27349
2024-04-25 16:14:00+00:00,315.0,0.01,214.0,0.0,14.4,47.59359,-54.27349
2024-04-25 16:24:00+00:00,315.0,0.01,214.0,0.0,14.4,47.59359,-54.27349
2024-04-25 16:34:00+00:00,315.0,0.01,214.0,0.0,14.4,47.59359,-54.27349
2024-04-25 16:44:00+00:00,315.0,0.01,214.0,0.0,14.4,47.59359,-54.27349
2024-04-25 16:54:00+00:00,315.0,0.01,214.0,0.0,14.4,47.59359,-54.27349
2024-04-25 17:04:00+00:00,315.0,0.01,214.0,0.0,14.4,47.59359,-54.27349
2024-04-25 17:14:00+00:00,315.0,0.01,214.0,0.0,13.68,47.59359,-54.27349
2024-04-25 17:24:00+00:00,315.0,0.01,214.0,0.0,13.68,47.59359,-54.27349
2024-04-25 17:34:00+00:00,315.0,0.01,214.0,0.0,13.68,47.59359,-54.27349
2024-04-25 17:44:00+00:00,315.0,0.01,214.0,0.0,13.68,47.59359,-54.27349
2024-04-25 17:54:00+00:00,315.0,0.01,214.0,0.0,13.68,47.59359,-54.27349
2024-04-25 18:04:00+00:00,315.0,0.01,214.0,0.0,13.68,47.59359,-54.27349
2024-04-25 18:14:00+00:00,315.0,0.01,214.0,0.0,14.32,47.59359,-54.27349
2024-04-25 18:24:00+00:00,315.0,0.01,214.0,0.0,14.32,47.59359,-54.27349
2024-04-25 18:34:00+00:00,315.0,0.01,214.0,0.0,14.32,47.59359,-54.27349
2024-04-25 18:44:00+00:00,315.0,0.01,214.0,0.0,14.32,47.59359,-54.27349
2024-04-25 18:54:00+00:00,315.0,0.01,214.0,0.0,14.32,47.59359,-54.27349
2024-04-25 19:04:00+00:00,315.0,0.01,214.0,0.0,14.32,47.59359,-54.27349
2024-04-25 19:14:00+00:00,315.0,0.01,214.0,0.0,13.53,47.59359,-54.27349
2024-04-25 19:24:00+00:00,315.0,0.01,214.0,0.0,13.53,47.59359,-54.27349
2024-04-25 19:34:00+00:00,315.0,0.01,214.0,0.0,13.53,47.59359,-54.27349
2024-04-25 19:44:00+00:00,315.0,0.01,214.0,0.0,13.53,47.59359,-54.27349
2024-04-25 19:54:00+00:00,315.0,0.01,214.0,0.0,13.53,47.59359,-54.27349
2024-04-25 20:04:00+00:00,315.0,0.01,214.0,0.0,13.53,47.59359,-54.27349
2024-04-25 20:14:01+00:00,315.0,0.01,214.0,0.0,13.6,47.59359,-54.27349
2024-04-25 20:24:01+00:00,315.0,0.01,214.0,0.0,13.6,47.59359,-54.27349
2024-04-25 20:34:01+00:00,315.0,0.01,214.0,0.0,13.6,47.59359,-54.27349
2024-04-25 20:44:01+00:00,315.0,0.01,214.0,0.0,13.6,47.59359,-54.27349
2024-04-25 20:54:01+00:00,315.0,0.01,214.0,0.0,13.6,47.59359,-54.27349
2024-04-25 21:04:01+00:00,315.0,0.01,214.0,0.0,13.6,47.59359,-54.27349
2024-04-25 21:14:00+00:00,315.0,0.01,214.0,0.0,13.53,47.59359,-54.27349
2024-04-25 21:24:00+00:00,315.0,0.01,214.0,0.0,13.53,47.59359,-54.27349
2024-04-25 21:34:00+00:00,315.0,0.01,214.0,0.0,13.53,47.59359,-54.27349
2024-04-25 21:44:00+00:00,315.0,0.01,214.0,0.0,13.53,47.59359,-54.27349
2024-04-25 21:54:00+00:00,315.0,0.01,214.0,0.0,13.53,47.59359,-54.27349
2024-04-25 22:04:00+00:00,315.0,0.01,214.0,0.0,13.53,47.59359,-54.27349
2024-04-25 22:14:01+00:00,315.0,0.01,214.0,0.0,13.21,47.59359,-54.27349
2024-04-25 22:24:01+00:00,315.0,0.01,214.0,0.0,13.21,47.59359,-54.27349
2024-04-25 22:34:01+00:00,315.0,0.01,214.0,0.0,13.21,47.59359,-54.27349
2024-04-25 22:44:01+00:00,315.0,0.01,214.0,0.0,13.21,47.59359,-54.27349
2024-04-25 22:54:01+00:00,315.0,0.01,214.0,0.0,13.21,47.59359,-54.27349
2024-04-25 23:04:01+00:00,315.0,0.01,214.0,0.0,13.21,47.59359,-54.27349
2024-04-25 23:14:01+00:00,315.0,0.01,214.0,0.0,12.57,47.59359,-54.27349
2024-04-25 23:24:01+00:00,315.0,0.01,214.0,0.0,12.57,47.59359,-54.27349
2024-04-25 23:34:01+00:00,315.0,0.01,214.0,0.0,12.57,47.59359,-54.27349
2024-04-25 23:44:01+00:00,315.0,0.01,214.0,0.0,12.57,47.59359,-54.27349
2024-04-25 23:54:01+00:00,315.0,0.01,214.0,0.0,12.57,47.59359,-54.27349
